When you browse on this site, cookies collect data to enhance your experience and personalize the content and advertising you see.
Visit our Privacy Policy to learn more. By continuing to use the site, you agree to this use of cookies and data.
  • In United Kingdom
  • List of Countries
  • For 7 days
  • Water Temperature
  • Weather Map
  • Weather Widgets
  • user-avatar
    Login

    Hourly Weather Mohacs

    Today, 21 January, Tuesday

    Time Temperature Precipitation Wind Pressure Humidity
    00:00 +2°C° 0 mm 1 mps 777 mmHg 94%
    01:00 +1°C° 0 mm 0 mps 777 mmHg 96%
    02:00 +1°C° 0 mm 0 mps 777 mmHg 95%
    03:00 +2°C° 0 mm 1 mps 777 mmHg 93%
    04:00 +2°C° 0 mm 1 mps 776 mmHg 91%
    05:00 +2°C° 0 mm 1 mps 776 mmHg 89%
    06:00 +2°C° 0 mm 1 mps 776 mmHg 88%
    07:00 +1°C° 0 mm 0 mps 776 mmHg 89%
    08:00 +2°C° 0 mm 1 mps 776 mmHg 84%
    09:00 +3°C° 0 mm 1 mps 776 mmHg 78%
    10:00 +3°C° 0 mm 2 mps 776 mmHg 73%
    11:00 +3°C° 0 mm 2 mps 775 mmHg 69%
    12:00 +4°C° 0 mm 2 mps 775 mmHg 65%
    13:00 +4°C° 0 mm 2 mps 775 mmHg 61%
    14:00 +4°C° 0 mm 2 mps 774 mmHg 63%
    15:00 +5°C° 0 mm 1 mps 773 mmHg 65%
    16:00 +4°C° 0 mm 1 mps 773 mmHg 67%
    17:00 +3°C° 0 mm 1 mps 772 mmHg 72%
    18:00 +3°C° 0 mm 1 mps 772 mmHg 76%
    19:00 +2°C° 0 mm 1 mps 772 mmHg 80%
    20:00 +1°C° 0 mm 1 mps 772 mmHg 82%
    21:00 +1°C° 0 mm 1 mps 771 mmHg 83%
    22:00 +1°C° 0 mm 1 mps 771 mmHg 85%
    23:00 +1°C° 0 mm 1 mps 771 mmHg 85%

    Tomorrow, 22 January, Wednesday

    Time Temperature Precipitation Wind Pressure Humidity
    00:00 +1°C° 0 mm 1 mps 771 mmHg 86%
    01:00 0°C° 0 mm 1 mps 770 mmHg 86%
    02:00 0°C° 0 mm 1 mps 770 mmHg 86%
    03:00 0°C° 0 mm 1 mps 769 mmHg 87%
    04:00 -2°C° 0 mm 2 mps 768 mmHg 87%
    05:00 -2°C° 0 mm 2 mps 768 mmHg 88%
    06:00 -3°C° 0 mm 2 mps 767 mmHg 88%
    07:00 -3°C° 0 mm 2 mps 767 mmHg 89%
    08:00 0°C° 0 mm 1 mps 766 mmHg 82%
    09:00 +1°C° 0 mm 1 mps 766 mmHg 75%
    10:00 +3°C° 0 mm 1 mps 766 mmHg 68%
    11:00 +4°C° 0 mm 1 mps 765 mmHg 64%
    12:00 +5°C° 0 mm 1 mps 765 mmHg 59%
    13:00 +6°C° 0 mm 1 mps 764 mmHg 54%
    14:00 +4°C° 0 mm 2 mps 764 mmHg 58%
    15:00 +4°C° 0 mm 2 mps 764 mmHg 62%
    16:00 +2°C° 0 mm 3 mps 763 mmHg 66%
    17:00 +1°C° 0 mm 3 mps 764 mmHg 70%
    18:00 +1°C° 0 mm 3 mps 764 mmHg 74%
    19:00 0°C° 0 mm 3 mps 764 mmHg 78%
    20:00 0°C° 0 mm 3 mps 765 mmHg 77%
    21:00 0°C° 0 mm 3 mps 765 mmHg 76%
    22:00 -1°C° 0 mm 4 mps 765 mmHg 75%
    23:00 0°C° 0 mm 3 mps 766 mmHg 77%

    Day after tomorrow, 23 January, Thursday

    Time Temperature Precipitation Wind Pressure Humidity
    00:00 0°C° 0 mm 3 mps 766 mmHg 79%
    01:00 0°C° 0 mm 3 mps 766 mmHg 81%
    02:00 0°C° 0 mm 3 mps 767 mmHg 83%
    03:00 -1°C° 0 mm 2 mps 767 mmHg 85%
    04:00 -1°C° 0 mm 2 mps 767 mmHg 87%
    05:00 -1°C° 0 mm 2 mps 767 mmHg 88%
    06:00 +1°C° 0 mm 1 mps 767 mmHg 88%
    07:00 0°C° 0 mm 1 mps 767 mmHg 89%
    08:00 +1°C° 0 mm 1 mps 768 mmHg 83%
    09:00 +3°C° 0 mm 1 mps 768 mmHg 78%
    10:00 +4°C° 0 mm 1 mps 768 mmHg 73%
    11:00 +5°C° 0 mm 1 mps 768 mmHg 69%
    12:00 +5°C° 0 mm 1 mps 768 mmHg 65%
    13:00 +5°C° 0 mm 2 mps 767 mmHg 61%
    14:00 +5°C° 0 mm 2 mps 767 mmHg 63%
    15:00 +4°C° 0 mm 2 mps 767 mmHg 66%
    16:00 +5°C° 0 mm 1 mps 766 mmHg 69%
    17:00 +3°C° 0 mm 2 mps 766 mmHg 72%
    18:00 +2°C° 0 mm 2 mps 766 mmHg 76%
    19:00 +1°C° 0 mm 2 mps 766 mmHg 79%
    20:00 +1°C° 0 mm 2 mps 766 mmHg 80%
    21:00 +1°C° 0 mm 2 mps 766 mmHg 80%
    22:00 -1°C° 0 mm 2 mps 765 mmHg 80%
    23:00 -1°C° 0 mm 2 mps 765 mmHg 80%

    24 January, Friday

    Time Temperature Precipitation Wind Pressure Humidity
    00:00 -1°C° 0 mm 2 mps 765 mmHg 80%
    01:00 -1°C° 0 mm 2 mps 765 mmHg 80%
    02:00 -2°C° 0 mm 2 mps 765 mmHg 78%
    03:00 -2°C° 0 mm 2 mps 764 mmHg 77%
    04:00 -2°C° 0 mm 2 mps 764 mmHg 76%
    05:00 -2°C° 0 mm 2 mps 764 mmHg 76%
    06:00 -2°C° 0 mm 2 mps 763 mmHg 76%
    07:00 -2°C° 0 mm 2 mps 763 mmHg 76%
    08:00 -1°C° 0 mm 2 mps 763 mmHg 71%
    09:00 +1°C° 0 mm 2 mps 763 mmHg 66%
    10:00 +2°C° 0 mm 2 mps 763 mmHg 62%
    11:00 +3°C° 0 mm 2 mps 763 mmHg 58%
    12:00 +4°C° 0 mm 2 mps 762 mmHg 55%
    13:00 +5°C° 0 mm 2 mps 762 mmHg 51%
    14:00 +5°C° 0 mm 2 mps 761 mmHg 55%
    15:00 +4°C° 0 mm 2 mps 761 mmHg 59%
    16:00 +4°C° 0 mm 2 mps 761 mmHg 64%
    17:00 +3°C° 0 mm 2 mps 761 mmHg 68%
    18:00 +2°C° 0 mm 2 mps 760 mmHg 72%
    19:00 +1°C° 0 mm 2 mps 760 mmHg 77%
    20:00 +1°C° 0 mm 2 mps 760 mmHg 78%
    21:00 +1°C° 0 mm 2 mps 760 mmHg 79%
    22:00 +1°C° 0 mm 2 mps 760 mmHg 80%
    23:00 +1°C° 0 mm 2 mps 760 mmHg 79%

    25 January, Saturday

    Time Temperature Precipitation Wind Pressure Humidity
    00:00 +2°C° 0 mm 2 mps 759 mmHg 78%
    01:00 +2°C° 0 mm 2 mps 759 mmHg 77%
    02:00 +2°C° 0 mm 2 mps 759 mmHg 77%
    03:00 +2°C° 0 mm 2 mps 758 mmHg 77%
    04:00 +2°C° 0 mm 2 mps 758 mmHg 77%
    05:00 +2°C° 0 mm 2 mps 758 mmHg 78%
    06:00 +2°C° 0 mm 2 mps 758 mmHg 79%
    07:00 +1°C° 0 mm 3 mps 758 mmHg 80%
    08:00 +2°C° 0 mm 3 mps 758 mmHg 77%
    09:00 +3°C° 0 mm 3 mps 758 mmHg 73%
    10:00 +4°C° 0 mm 3 mps 758 mmHg 70%
    11:00 +7°C° 0 mm 3 mps 758 mmHg 69%
    12:00 +8°C° 0 mm 3 mps 758 mmHg 67%
    13:00 +9°C° 0 mm 2 mps 757 mmHg 66%
    14:00 +9°C° 0 mm 2 mps 757 mmHg 69%
    15:00 +9°C° 0 mm 1 mps 757 mmHg 73%
    16:00 +9°C° 0 mm 1 mps 757 mmHg 76%
    17:00 +9°C° 0.1 mm 1 mps 757 mmHg 80%
    18:00 +8°C° 0.1 mm 1 mps 757 mmHg 84%
    19:00 +7°C° 0.1 mm 1 mps 758 mmHg 88%
    20:00 +7°C° 0.1 mm 1 mps 758 mmHg 90%
    21:00 +7°C° 0.1 mm 1 mps 758 mmHg 91%
    22:00 +7°C° 0.1 mm 1 mps 758 mmHg 93%
    23:00 +7°C° 0.1 mm 1 mps 758 mmHg 93%

    26 January, Sunday

    Time Temperature Precipitation Wind Pressure Humidity
    00:00 +6°C° 0.1 mm 0 mps 758 mmHg 94%
    01:00 +5°C° 0.1 mm 0 mps 758 mmHg 94%
    02:00 +5°C° 0.1 mm 0 mps 758 mmHg 94%
    03:00 +5°C° 0.1 mm 0 mps 758 mmHg 94%
    04:00 +5°C° 0.1 mm 0 mps 759 mmHg 94%
    05:00 +6°C° 0 mm 1 mps 759 mmHg 94%
    06:00 +6°C° 0 mm 1 mps 759 mmHg 94%
    07:00 +5°C° 0 mm 1 mps 759 mmHg 94%
    08:00 +6°C° 0 mm 1 mps 759 mmHg 91%
    09:00 +8°C° 0 mm 1 mps 759 mmHg 88%
    10:00 +9°C° 0 mm 1 mps 760 mmHg 85%
    11:00 +10°C° 0 mm 1 mps 759 mmHg 81%
    12:00 +11°C° 0 mm 1 mps 759 mmHg 77%
    13:00 +10°C° 0 mm 2 mps 759 mmHg 72%
    14:00 +11°C° 0 mm 1 mps 759 mmHg 75%
    15:00 +11°C° 0 mm 1 mps 759 mmHg 77%
    16:00 +10°C° 0 mm 1 mps 758 mmHg 79%
    17:00 +10°C° 0 mm 1 mps 759 mmHg 82%
    18:00 +9°C° 0 mm 1 mps 759 mmHg 84%
    19:00 +8°C° 0 mm 1 mps 759 mmHg 87%
    20:00 +8°C° 0 mm 1 mps 759 mmHg 87%
    21:00 +7°C° 0 mm 1 mps 760 mmHg 88%
    22:00 +7°C° 0 mm 1 mps 760 mmHg 88%
    23:00 +7°C° 0 mm 1 mps 760 mmHg 88%
    Show more